CW4167 Weather Reports


Display with metric or nautical units.
time (UTC)temp
F
wind
direction
speed
MPH
gust
MPH
rain 1hr
in
rain 24hr
in
rain mn
in
humidity
%
barometer
mb
20260503012205 53 204 4.0 7.0 0.00 0.00 0.00 71 1009.4
20260503011705 53 210 4.0 5.0 0.00 0.00 0.00 70 1009.5
20260503011205 53 185 4.0 5.0 0.00 0.00 0.00 70 1009.5
20260503010706 53 185 2.0 5.0 0.00 0.00 0.00 69 1009.5
20260503005706 53 158 4.0 6.0 0.00 0.00 0.00 68 1009.4
20260503004206 54 165 2.0 3.0 0.00 0.00 0.00 67 1009.5
20260503003706 54 165 1.0 2.0 0.00 0.00 0.00 67 1009.5
20260503003205 54 165 3.0 5.0 0.00 0.00 0.00 66 1009.4
20260503002705 55 166 3.0 5.0 0.00 0.00 0.00 66 1009.5
20260503001706 55 179 4.0 5.0 0.00 0.00 0.00 66 1009.5
20260502235205 55 178 4.0 6.0 0.00 0.00 0.00 64 1009.8
20260502234207 56 165 5.0 6.0 0.00 0.00 0.00 63 1009.9
20260502233208 56 158 3.0 5.0 0.00 0.00 0.00 62 1010.1
20260502231705 57 157 3.0 5.0 0.00 0.00 0.00 61 1010.3
20260502231205 57 166 5.0 6.0 0.00 0.00 0.00 61 1010.3
20260502224206 58 230 2.0 5.0 0.00 0.00 0.00 58 1010.4
20260502223705 58 197 3.0 6.0 0.00 0.00 0.00 58 1010.4
20260502222706 59 185 3.0 5.0 0.00 0.00 0.00 57 1010.4
20260502215206 61 177 3.0 5.0 0.00 0.00 0.00 55 1010.5
20260502214206 61 217 3.0 5.0 0.00 0.00 0.00 54 1010.5
20260502212206 62 175 4.0 6.0 0.00 0.00 0.00 54 1010.6
20260502211706 62 181 3.0 5.0 0.00 0.00 0.00 54 1010.6
20260502210206 62 164 4.0 6.0 0.00 0.00 0.00 52 1010.7
20260502205706 62 183 3.0 5.0 0.00 0.00 0.00 51 1010.7
20260502205205 62 187 3.0 5.0 0.00 0.00 0.00 51 1010.8
20260502204705 62 251 3.0 5.0 0.00 0.00 0.00 50 1010.7
20260502204205 63 251 3.0 5.0 0.00 0.00 0.00 51 1010.7
20260502202705 63 251 3.0 3.0 0.00 0.00 0.00 51 1010.7
20260502201705 63 255 1.0 2.0 0.00 0.00 0.00 50 1010.7
20260502201205 64 255 1.0 5.0 0.00 0.00 0.00 50 1010.7
20260502194206 65 252 2.0 6.0 0.00 0.00 0.00 47 1010.9
20260502193706 65 260 2.0 6.0 0.00 0.00 0.00 47 1010.9
20260502191705 66 252 3.0 7.0 0.00 0.00 0.00 47 1010.9
20260502190705 67 286 3.0 5.0 0.00 0.00 0.00 46 1010.9
20260502190205 67 284 4.0 9.0 0.00 0.00 0.00 47 1010.9
20260502185705 68 271 3.0 7.0 0.00 0.00 0.00 46 1010.9
20260502184205 69 231 2.0 6.0 0.00 0.00 0.00 47 1010.9
20260502183705 69 205 3.0 7.0 0.00 0.00 0.00 47 1010.9
20260502182704 69 237 3.0 5.0 0.00 0.00 0.00 46 1010.7
20260502182205 70 237 3.0 7.0 0.00 0.00 0.00 45 1010.7
20260502181204 70 232 5.0 6.0 0.00 0.00 0.00 45 1010.7
20260502163706 76 199 12.0 17.0 0.00 0.00 0.00 37 1011.3
20260502163205 76 211 6.0 20.0 0.00 0.00 0.00 37 1011.3
20260502162207 76 207 13.0 22.0 0.00 0.00 0.00 36 1011.3
20260502160705 76 191 13.0 20.0 0.00 0.00 0.00 36 1011.3
20260502152204 77 216 10.0 18.0 0.00 0.00 0.00 38 1011.7
20260502151704 77 233 9.0 17.0 0.00 0.00 0.00 37 1011.9
20260502151205 77 207 13.0 17.0 0.00 0.00 0.00 37 1012.0
20260502150705 77 216 16.0 25.0 0.00 0.00 0.00 36 1012.0
20260502150205 77 212 11.0 16.0 0.00 0.00 0.00 38 1012.0
20260502130704 76 203 16.0 23.0 0.00 0.00 0.00 38 1013.2
20260502130205 76 181 11.0 21.0 0.00 0.00 0.00 38 1013.3
20260502121704 75 190 12.0 20.0 0.00 0.00 0.00 40 1013.9
20260502115706 75 190 14.0 21.0 0.00 0.00 0.00 40 1014.1
20260502115206 75 185 17.0 25.0 0.00 0.00 0.00 38 1014.3
20260502114206 75 209 15.0 20.0 0.00 0.00 0.00 39 1014.4
20260502112706 75 193 10.0 22.0 0.00 0.00 0.00 43 1014.4
20260502112208 75 200 12.0 18.0 0.00 0.00 0.00 41 1014.5
20260502111706 74 205 14.0 20.0 0.00 0.00 0.00 41 1014.7
20260502105705 75 163 9.0 17.0 0.00 0.00 0.00 43 1014.9
20260502104706 75 169 13.0 18.0 0.00 0.00 0.00 44 1014.9
20260502104207 74 225 7.0 14.0 0.00 0.00 0.00 43 1015.0
20260502103705 74 206 12.0 20.0 0.00 0.00 0.00 42 1015.0
20260502103206 74 189 10.0 16.0 0.00 0.00 0.00 44 1015.0
20260502102706 74 211 6.0 16.0 0.00 0.00 0.00 45 1015.0
20260502102206 73 209 7.0 20.0 0.00 0.00 0.00 44 1015.0
20260502101206 73 196 9.0 20.0 0.00 0.00 0.00 46 1015.1
20260502100706 73 172 12.0 20.0 0.00 0.00 0.00 45 1015.2
20260502091205 70 175 10.0 16.0 0.00 0.00 0.00 50 1015.7
20260502090706 70 182 8.0 15.0 0.00 0.00 0.00 53 1015.7
20260502071206 64 181 12.0 20.0 0.00 0.00 0.00 58 1016.4
20260502070705 63 177 9.0 15.0 0.00 0.00 0.00 58 1016.4
20260502070208 63 159 9.0 14.0 0.00 0.00 0.00 60 1016.4
20260502065705 63 177 9.0 16.0 0.00 0.00 0.00 59 1016.5
20260502065205 62 183 12.0 15.0 0.00 0.00 0.00 59 1016.5
20260502064706 62 186 13.0 17.0 0.00 0.00 0.00 59 1016.5
20260502062707 62 175 12.0 16.0 0.00 0.00 0.00 58 1016.6
20260502061705 61 167 13.0 17.0 0.00 0.00 0.00 57 1016.6
20260502060706 61 170 10.0 20.0 0.00 0.00 0.00 59 1016.7
20260502060205 60 175 11.0 16.0 0.00 0.00 0.00 59 1016.8
20260502055706 60 169 13.0 17.0 0.00 0.00 0.00 59 1016.7
20260502055205 60 169 8.0 18.0 0.00 0.00 0.00 60 1016.7
20260502054705 59 170 10.0 16.0 0.00 0.00 0.00 60 1016.7
20260502054206 59 160 9.0 18.0 0.00 0.00 0.00 61 1016.8
20260502053706 59 162 10.0 17.0 0.00 0.00 0.00 61 1016.8
20260502053205 58 159 13.0 17.0 0.00 0.00 0.00 61 1016.9
20260502052706 58 168 12.0 17.0 0.00 0.00 0.00 62 1016.9
20260502052207 57 168 13.0 18.0 0.00 0.00 0.00 63 1017.0
20260502050707 55 164 12.0 15.0 0.00 0.00 0.00 65 1017.1
20260502050205 55 166 9.0 16.0 0.00 0.00 0.00 65 1017.1
20260502044206 54 164 10.0 14.0 0.00 0.00 0.00 65 1017.3
20260502043705 54 170 7.0 13.0 0.00 0.00 0.00 65 1017.4
20260502043206 54 165 7.0 13.0 0.00 0.00 0.00 66 1017.4
20260502042205 54 167 10.0 14.0 0.00 0.00 0.00 66 1017.5
20260502041205 53 162 8.0 14.0 0.00 0.00 0.00 67 1017.5
20260502035205 53 169 9.0 15.0 0.00 0.00 0.00 67 1017.8
20260502033706 53 158 8.0 16.0 0.00 0.00 0.00 66 1017.9
20260502031205 53 170 10.0 15.0 0.00 0.00 0.00 64 1018.1
20260502030705 54 158 10.0 16.0 0.00 0.00 0.00 63 1018.2
20260502025706 54 162 10.0 17.0 0.00 0.00 0.00 62 1018.3
20260502025205 54 171 10.0 17.0 0.00 0.00 0.00 62 1018.3
20260502024707 54 157 12.0 16.0 0.00 0.00 0.00 62 1018.3
20260502023705 54 161 11.0 15.0 0.00 0.00 0.00 62 1018.4
20260502023205 54 165 9.0 16.0 0.00 0.00 0.00 62 1018.5
20260502015707 53 160 9.0 15.0 0.00 0.00 0.00 62 1019.0
20260502013705 53 161 10.0 15.0 0.00 0.00 0.00 62 1019.2